Regional Weather Roundup
Issued by NWS

Home | Current Version | Previous Version | Text Only | Print | Product List | Glossary Off
Versions: 1 2 3 4 5 6 7 8 9 10 11 12 13 14 15 16 17 18 19 20 21 22 23 24 25 26 27 28 29 30 31 32 33 34 35 36 37 38 39 40 41 42 43 44 45 46 47 48 49 50

971
ASUS45 KTFX 181710
RWRMT
MONTANA REGIONAL WEATHER ROUNDUP
NATIONAL WEATHER SERVICE GREAT FALLS MT
1000 AM MST MON DEC 18 2017

NOTE: "FAIR" INDICATES FEW OR NO CLOUDS BELOW 12000 FEET WITH NO
SIGNIFICANT WEATHER AND/OR OBSTRUCTIONS TO VISIBILITY.

MTZ001>007-043-181800-
WEST OF THE DIVIDE

CITY           SKY/WX    TMP DP  RH WIND       PRES   REMARKS
KALISPELL      CLOUDY    37  34  89 S9        29.81R WCI  30
MISSOULA       CLOUDY    32  29  88 CALM      29.90R
BUTTE          CLOUDY    41  25  53 SW8       29.89R
MULLAN PASS    SNOW      30  27  88 CALM      29.85R VSB 1/4
ANACONDA         N/A     43  25  49 SW17G28   29.84S
DEER LODGE       N/A     45  25  45 SW10G16   29.87R
EUREKA           N/A     41  30  65 MISG      29.77R
HAMILTON         N/A     46  28  49 SE15G23   29.92R
LIBBY            N/A     39  34  81 SW3       29.81R
PLAINS           N/A     42  31  65 CALM      29.89
RONAN            N/A     41  30  65 S7        29.91R
$$

MTZ008-052>055-181800-
SOUTHWEST MONTANA

CITY           SKY/WX    TMP DP  RH WIND       PRES   REMARKS
BOZEMAN        FAIR      42  28  57 SW16G23   29.84S
DILLON         FAIR      38  24  57 S13       29.93S WCI  30
ENNIS          CLOUDY    30  23  74 S21G32    29.99S WCI  17
W YELLOWSTONE  CLOUDY    19  18  93 SW15G24   30.09R FOG     WCI   5
THREE FORKS      N/A     40  28  62 E7        29.84S
TWIN BRIDGES     N/A     39  24  55 CALM      29.91F
$$

MTZ009-010-012-014-046-048-049-054-181800-
EAST SLOPES AND CENTRAL MONTANA

CITY           SKY/WX    TMP DP  RH WIND       PRES   REMARKS
CUT BANK       PTSUNNY   36  31  82 W18       29.66R WCI  26
GREAT FALLS    FAIR      41  26  55 SW16      29.69R
MALMSTROM AFB  FAIR      43  27  54 SW17G26   29.70R
HELENA         FAIR      44  31  60 NW9G21    29.78S
BOWMANS CRNR   FAIR      41  24  50 SW21G32   29.69R
CHOTEAU          N/A     41  27  56 SW10      29.69R
FAIRFIELD      FAIR      39  26  60 SW15      29.69R WCI  31
POWER          FAIR      40  26  57 SW20G26   29.67R
RAYNESFORD     PTSUNNY   44  28  54 W21G29    29.70R
ULM            FAIR      44  28  53 W28G33    29.71R
WHITE SULPHUR    N/A     39  27  60 SW21G26   29.77R WCI  29
$$

MTZ011-013-016-021-045-047-050-051-181800-
NORTH CENTRAL MONTANA

CITY           SKY/WX    TMP DP  RH WIND       PRES   REMARKS
HAVRE          CLOUDY    41  30  65 W9        29.63R
LEWISTOWN      CLOUDY    43  28  55 W18       29.68R
N BAR RANCH    FAIR      46  25  42 W26G39    29.67S
CHINOOK          N/A     41  28  60 W9        29.63R
DENTON         FAIR      46  27  48 W30       29.62R
GEYSER         PTSUNNY   44  27  50 W36G46    29.65R
GRASS RANGE    PTSUNNY   46  27  47 W29G35    29.62R
STANFORD       PTSUNNY   44  28  54 W35G40    29.65R
WINIFRED       FAIR      45  27  49 W28G38    29.62R
$$

MTZ017>020-022>027-061-062-181800-
NORTHEAST MONTANA

CITY           SKY/WX    TMP DP  RH WIND       PRES   REMARKS
GLASGOW        CLOUDY    39  33  79 W9        29.58R
GLENDIVE       PTSUNNY   38  30  73 W12       29.63R WCI  30
JORDAN           N/A     43  33  68 NW3       29.62R
MALTA          PTSUNNY   43  30  61 NW18      29.63R
SIDNEY         CLOUDY    35  33  92 SW9       29.60R WCI  28
WOLF POINT     CLOUDY    38  35  89 SW6       29.59R
PLENTYWOOD       N/A     34  34 100 CALM      29.56S
POPLAR           N/A     37  34  87 SW7       29.59R
SCOBEY           N/A     34  28  79 SW8       29.57R WCI  27
$$

MTZ028>42-056>058-181800-
SOUTHCENTRAL AND SOUTHEAST MONTANA

CITY           SKY/WX    TMP DP  RH WIND       PRES   REMARKS
BAKER          CLOUDY    41  24  51 W15G24    29.65S
BILLINGS       PTSUNNY   38  25  59 SW24      29.75R WCI  27
LIVINGSTON     FAIR      43  27  53 SW53G68   29.70F
MILES CITY     PTSUNNY   42  26  53 W15       29.66S
BIG TIMBER     CLOUDY    45  25  45 W31G37    29.76F
EKALAKA          N/A     38  20  48 SW15      29.68  WCI  29
FORSYTH          N/A     46  25  42 W14G20    29.67R
HARLOWTON      PTSUNNY   41  29  63 W20G25    29.71R
LAUREL           N/A     36  27  69 SW13      29.76R WCI  27
$$

REGIONAL REPORTS...DAKOTAS

CITY           SKY/WX    TMP DP  RH WIND       PRES   REMARKS
WILLISTON      LGT RAIN  34  33  96 SW7       29.58S WCI  28
MINOT          LGT SNOW  37  29  72 W13       29.55R WCI  29
DICKINSON      FAIR      36  32  85 W15       29.59F WCI  27
BEACH          PTSUNNY   36  28  75 W14G21    29.65R WCI  27
CROSBY         LGT SNOW  32  32 100 W8        29.56S WCI  25
TIOGA          LGT SNOW  32  32 100 W8        29.56S WCI  25
BISMARCK       CLOUDY    38  29  70 SW8       29.63R
GRAND FORKS    CLOUDY    32  28  85 S12       29.54S WCI  23
FARGO          CLOUDY    34  28  79 S10       29.61S WCI  26
BUFFALO SD       N/A     43  24  47 W17       29.62R
RAPID CITY     PTSUNNY   38  23  55 CALM      29.74R
$$

REGIONAL REPORTS...WYOMING/IDAHO/WASHINGTON

CITY           SKY/WX    TMP DP  RH WIND       PRES   REMARKS
GILLETTE       FAIR      38  25  59 SW21      29.77R WCI  28
SHERIDAN       FAIR      46  27  47 NE5       29.75R
BUFFALO WY     FAIR      47  20  34 E5        29.77R
CODY           CLOUDY    41  22  46 NW9G20    29.90R
YELLOWSTONE LA   N/A     18  14  84 VRB5      30.09S
IDAHO FALLS    CLOUDY    28  23  81 CALM      30.21R
SALMON         CLOUDY    24  18  77 CALM      30.08R
BOISE          FAIR      32  26  78 CALM      30.22R
SPOKANE        MOCLDY    37  35  92 SW16      29.91R WCI  28
$$

REGIONAL REPORTS...ALBERTA

CITY           SKY/WX    TMP DP  RH WIND       PRES   REMARKS
EDMONTON       CLEAR     27  12  54 W17G23    29.65R WCI  14
CALGARY        CLOUDY    27  18  69 W7        29.72R WCI  19
LETHBRIDGE     LGT SNOW  28  27  93 N12       29.75R WCI  18
MEDICINE HAT   LGT SNOW  30  28  93 NW9       29.72  WCI  22
$$

REGIONAL REPORTS...SASKATCHEWAN

CITY           SKY/WX    TMP DP  RH WIND       PRES   REMARKS
SWIFT CURRENT  CLOUDY    28  25  86 W13       29.59R WCI  18
REGINA         PTSUNNY   32  23  69 W14       29.54R WCI  22
SASKATOON      PTCLDY    21  16  79 W8        29.54R WCI  12
$$




USA.gov is the U.S. government's official web portal to all federal, state and local government web resources and services.